Location: Hackbridge
(51.3833°N, 0.1500°W)
Time: 11:35:16
(UTC+00:00)

STARLINK-41 - Pass Details

Date: 13 October 2019
Orbit: 548 x 551 km, 53.0° (Epoch: 12 November)

Event Time Altitude Azimuth Distance (km) Brightness Sun altitude
Rises 19:29:10 0° 246° (WSW) 2,711 7.9 -22.0°
Reaches altitude 10° 19:31:23 10° 245° (WSW) 1,820 6.9 -22.3°
Enters shadow 19:35:16 74° 201° (SSW) 576 3.6 -22.9°
